Regional Weather Roundup
Issued by NWS Austin/San Antonio, TX

Home | Current Version | Previous Version | Text Only | Print | Product List | Glossary On
Versions: 1 2 3 4 5 6 7 8 9 10 11 12 13 14 15 16 17 18 19 20 21 22 23 24 25 26 27 28 29 30 31 32 33 34 35 36 37 38 39 40 41 42 43 44 45 46 47 48 49 50
040
ASUS44 KEWX 202011
RWREWX
SOUTH TEXAS REGIONAL WEATHER ROUNDUP
NATIONAL WEATHER SERVICE AUSTIN/SAN ANTONIO TX
300 PM CDT SUN AUG 20 2017

NOTE: "FAIR" INDICATED FEW OR NO CLOUDS BELOW 12,000 FEET WITH NO
SIGNIFICANT WEATHER AND/OR OBSTRUCTIONS TO VISIBILITY.

* - THESE STATIONS ARE NOT NWS OR FAA STATIONS...AND ARE NOT SUBJECT
    TO NWS AND FAA QUALITY CONTROL.

TXZ171-172-183>190-202100-
TEXAS HILL COUNTRY AND EDWARDS PLATEAU

CITY           SKY/WX    TMP DP  RH WIND       PRES   REMARKS
JUNCTION       MOSUNNY   96  58  27 SE10      30.00F HX  95
*LLANO         SUNNY     97  64  34 S10G17    30.02F HX  99
BURNET         SUNNY     95  65  37 MISG      30.03F HX  97
*HORSESHOE BAY MOSUNNY   96  63  33 SE7       30.00F HX  98
*KERRVILLE     SUNNY     94  68  42 S13G18    30.02F HX  98
*FREDERICKSBRG SUNNY     92  57  30 SE9       30.03F HX  90
*ROCKSPRINGS   NOT AVBL
*BOERNE STAGE  SUNNY    N/A N/A N/A SE13      30.03F
*CASTROVILLE   SUNNY     96  63  34 SE9G17    29.99F HX  97
HONDO          NOT AVBL
*UVALDE        MOSUNNY   98  63  31 S10G16    29.97F HX  99
DEL RIO        MOSUNNY   99  65  32 SE10G24   29.93F HX 102
LAUGHLIN AFB   MOSUNNY   98  65  33 S14G22    29.94F HX 101
CARRIZO SPRGS  MOSUNNY  100  61  27 SE13G18   29.92F HX 101
*EAGLE PASS    NOT AVBL
$$

TXZ173-191>194-202-209-217>225-228-202100-
CENTRAL AND SOUTH CENTRAL TEXAS

CITY           SKY/WX    TMP DP  RH WIND       PRES   REMARKS
GEORGETOWN     SUNNY     95  68  41 VRB6      30.01F HX  99
AUSTIN/BERGSTM MOSUNNY   98  70  40 SE10      29.98F HX 105
AUSTIN/MABRY   MOSUNNY   97  65  34 VRB5      30.00F HX  99
*AUSTIN/EXEC   MOSUNNY   93  68  43 S9G16     29.99F HX  97
*LAGO VISTA    SUNNY     95  62  34 SE13      30.02F HX  95
SAN MARCOS     MOSUNNY   97  70  41 S13       29.99F HX 103
NEW BRAUNFELS  PTSUNNY   95  68  41 VRB7      29.97F HX  99
RANDOLPH AFB   MOSUNNY   95  66  38 S12       29.98F HX  99
PT SAN ANTONIO MOSUNNY   94  69  44 SE8       29.96F HX 100
SAN ANTONIO    MOSUNNY   94  68  42 SE13G20   29.99F HX  98
STINSON FIELD  SUNNY     98  70  40 SE8       29.95F HX 105
*LA GRANGE     MOSUNNY   99  71  40 SE7       29.95F HX 106
*GIDDINGS      SUNNY     96  63  33 W6        29.99F HX  97
*GONZALES      SUNNY     99  70  39 S7        29.97F HX 106
$$

TXZ163>164-176>182-195>201-210>213-226-227-235-202100-
SOUTHEAST TEXAS

CITY           SKY/WX    TMP DP  RH WIND       PRES   REMARKS
COLLEGE STN    SUNNY     96  68  39 SW7G16    29.97F HX 101
*BRYAN         MOSUNNY   96  68  39 SW8       29.99F HX 100
*CALDWELL      NOT AVBL
*CROCKETT      SUNNY     95  70  43 SE5       30.01F HX 101
*BRENHAM       MOSUNNY   98  67  36 SW8       29.98F HX 102
HUNTSVILLE     MOSUNNY   95  65  37 VRB3      29.99F HX  97
CONROE         MOSUNNY   96  69  41 VRB6      29.99F HX 102
HOUSTON BUSH   MOSUNNY   95  72  47 VRB5      29.98F HX 103
HOUSTON HOBBY  PTSUNNY   96  72  45 S17G23    29.97F THUNDER HX 104
*HOUSTON SW AP TSTM     N/A N/A N/A SE12      30.00R
PEARLAND       MOSUNNY   87  69  54 S9        30.01R THUNDER HX  91
HOUSTON HOOKS  MOSUNNY   96  70  42 CALM      29.98F HX 102
ELLINGTON FLD  PTSUNNY   93  72  49 SE10      30.00F HX 100
SUGAR LAND     MOSUNNY   97  68  38 CALM      29.97F HX 102
*HOUSTON EXEC  MOSUNNY   93  68  43 E6        29.99F HX  97
*CLEVELAND MUN MOSUNNY   92  74  56 CALM      30.00F HX 102
*WHARTON       MOSUNNY   95  68  41 SE6       29.98F HX  99
*COLUMBUS      PTSUNNY   96  67  39 SE7       29.98F HX 100
*EAGLE LAKE    PTCLDY    98  69  39 S6        29.97F HX 103
$$

TXZ214>216-236>238-202100-
THE UPPER TEXAS COAST

CITY           SKY/WX    TMP DP  RH WIND       PRES   REMARKS
*ORANGE        PTSUNNY   85  77  78 E12       30.02S THUNDER HX  95
PORT ARTHUR    MOSUNNY   83  78  85 W6        30.00F HX  93
GALVESTON      SUNNY     90  77  65 E12G20    30.01F HX 103
ANGLETON       MOSUNNY   93  76  57 SE9       29.98F HX 105
*BAY CITY      PTSUNNY   93  76  57 S9        29.97F HX 105
PALACIOS       SUNNY     90  75  61 S12       29.97F HX 100
$$

TXZ229>234-239>247-202100-
TEXAS COASTAL BEND AND RIO GRANDE PLAINS

CITY           SKY/WX    TMP DP  RH WIND       PRES   REMARKS
VICTORIA       SUNNY     96  71  44 SE10      29.96F HX 103
*BEEVILLE      MOSUNNY   99  66  33 SE14G21   29.95F HX 102
ROCKPORT         N/A     92  75  57 SE12      29.97F HX 103
*PORT ARANSAS  SUNNY     89  76  65 E8        29.98F HX  99
*PORT LAVACA   SUNNY     92  71  49 SE10      29.97F HX  98
*INGLESIDE     MOSUNNY   94  74  52 MISG      29.97F HX 104
CORPUS CHRISTI MOSUNNY   95  74  50 SE14G20   29.95F HX 105
CORPUS NAS     NOT AVBL
*ROBSTOWN      MOSUNNY   97  67  38 SE15G21   29.95F HX 101
ALICE          SUNNY    100  63  29 E14       29.93F HX 102
KINGSVILLE NAS MOSUNNY   98  70  40 SE14G20   29.94F HX 105
COTULLA        MOSUNNY  100  60  26 SE10G18   29.93F HX 100
*FAITH RANCH   SUNNY    100  63  28 SE9G20    29.93F HX 102
LAREDO         MOSUNNY  101  66  31 SE14G22   29.92F HX 105
$$

TXZ248>255-202100-
DEEP SOUTH TEXAS

CITY           SKY/WX    TMP DP  RH WIND       PRES   REMARKS
BROWNSVILLE    MOSUNNY   95  73  48 E10       29.94F HX 104
PORT ISABEL    SUNNY     91  77  63 E16       29.94F HX 104
*SOUTH PADRE   NOT AVBL
HARLINGEN      PTSUNNY   95  73  48 E18       29.92F HX 104
*HEBBRONVILLE  MOSUNNY   98  62  31 SE13G20   29.95F HX  99
MCALLEN        SUNNY    101  69  35 SE20      29.91F HX 107
*WESLACO       MOSUNNY   99  69  37 E13G18    29.91F HX 104
FALFURRIAS     MOSUNNY  100  66  33 SE13G18   29.91F HX 103
EDINBURG       PTSUNNY  101  64  30 S9        29.91F HX 103
*ZAPATA        PTSUNNY  101  62  27 SE14G22   29.91F HX 102
$$

TXZ213>215-236>238-242>244-246-247-251-254-255-202100-
CMAN STATIONS

STATION/POSITION TIME  TEMP    WIND        PRES    WAVE
                       AIR SEA DIR/SP/G            HT/PER
                 (UTC) (F)     (DEG/KT/KT) (MB)    (FT/S)
SABINE PASS      1942   86 90  140/  5/  5 1017.5
SEA RIM ST PARK  1900   83      10/  5/  5 1017.1
NORTH JETTY/GLS  1942      88  120/  8/  9 1015.6
EAGLE POINT      1942   88 91  110/  9/ 12 1016.1
MORGANS POINT    1948   90 89  120/  8/ 11 1015.7
MISSION/ARANSAS  1900          130/ 10     1016.0
PORT O`CONNOR    1942   87     120/  9/ 10 1015.1
PORT ARANSAS     1900   84 88  100/  7/  8 1015.9
MALAQUITE BEACH  1942   84 83   90/  7/  9 1014.6
BAFFIN BAY       1942   87 91              1015.1
PORT ISABEL      1942   88 84              1014.5
$$




USA.gov is the U.S. government's official web portal to all federal, state and local government web resources and services.